Location: Astronomy Adventures Observing Site
(35.3995°N, 106.1279°W)
Time: 18:24:16
(UTC-06:00)

Envisat - Pass Details

Date: 24 January 2022
Orbit: 764 x 765 km, 98.2° (Epoch: 27 May)

Event Time Altitude Azimuth Distance (km) Brightness Sun altitude
Rises 03:38:26 0° 35° (NE) 3,233 6.7 -42.9°
Reaches altitude 10° 03:41:53 10° 60° (ENE) 2,301 6.0 -42.2°
Maximum altitude 03:44:34 14° 92° (E) 2,011 5.7 -41.6°
Drops below altitude 10° 03:47:14 10° 124° (SE) 2,294 5.9 -41.1°
Sets 03:50:38 0° 149° (SSE) 3,215 6.5 -40.4°
